Volver al catálogo

STARLINK-4531

ActivoComunicacionesVLEO
NORAD 53425·PAYLOAD·🇺🇸 United States

Lanzado Aug 10, 2022 desde Cape Canaveral Space Force Station

Loading…

Próximos Pases (próximas 24 horas)

TLE

ActualizadoSource: CelesTrak SupGP

Época: Sep 14, 2026, 14:39 UTC

1 53425C 22097AP  26257.61090278  .00039718  00000+0  12774-2 0  2571
2 53425  53.1583 331.9068 0001277  65.8841 159.7267 15.31678753    19

Sigue STARLINK-4531 en tiempo real con AllMySat

Download on the App Store